IRIDIUM 157

Last updated on Sun Jun 21 2026 00:03:14 GMT+0000 (Coordinated Universal Time)

1 43251U 18030C 26171.39554921 .00000069 00000+0 17534-4 0 9990 2 43251 86.3962 289.0785 0002210 94.1526 265.9923 14.34217878430594
UTC large
Height (km)
Speed (km/s)
/
Latitude / Longitude
Inclination (degrees)
Orbital Period (minutes)
Azimuth
Elevation
Range (km)
Doppler Factor

Next 0 passes for location: London (51.5072 / 0.1276)

No passes found over London.
IRIDIUM 157